Location: Observatorio Las Palmas
(29.0667°N, 110.9333°W)
Time: 21:01:47
(UTC-07:00)

HST - Visible Passes

Search period start: 30 October 2014 00:00
Search period end: 09 November 2014 00:00
Orbit: 546 x 550 km, 28.5° (Epoch: 30 October)

Date Brightness Start Highest point End Pass type
(mag) Time Alt. Az. Time Alt. Az. Time Alt. Az.
30 Oct 0.7 18:45:50 10° W 18:50:01 84° S 18:51:55 32° E visible
30 Oct 4.1 20:27:17 10° W 20:27:27 11° W 20:27:27 11° W visible
31 Oct 0.8 18:38:32 10° W 18:42:43 81° S 18:45:03 26° E visible
31 Oct 3.9 20:20:02 10° W 20:20:35 13° W 20:20:35 13° W visible
01 Nov 0.9 18:31:13 10° W 18:35:24 76° S 18:38:13 20° ESE visible
01 Nov 3.7 20:12:49 10° W 20:13:46 16° W 20:13:46 16° W visible
02 Nov 1.0 18:23:54 10° W 18:28:04 68° S 18:31:27 15° ESE visible
02 Nov 3.4 20:05:39 10° W 20:07:00 18° WSW 20:07:00 18° WSW visible
03 Nov 1.2 18:16:36 10° W 18:20:43 59° SSW 18:24:45 11° ESE visible
03 Nov 3.3 19:58:34 10° WSW 20:00:19 18° SW 20:00:19 18° SW visible
04 Nov 1.6 18:09:17 10° W 18:13:20 49° SSW 18:17:23 10° ESE visible
04 Nov 3.3 19:51:39 10° WSW 19:53:43 16° SW 19:53:43 16° SW visible
05 Nov 2.0 18:02:00 10° W 18:05:56 40° SSW 18:09:51 10° SE visible
05 Nov 3.5 19:45:04 10° SW 19:46:55 13° SSW 19:47:15 13° SSW visible
06 Nov 2.4 17:54:46 10° W 17:58:30 32° SSW 18:02:15 10° SE visible
